Flag for Poland Weather past 2 weeks in Lódz, Poland

Now
69 °F

Overcast.


Feels Like: 69 °F
Forecast: 59 / 76 °F
Wind: 3 mph from Northwest

Location: Lodz

Current Time: Aug 29, 2015 at 12:52:54 AM

Latest Report: Aug 28, 2015 at 9:00 PM


Visibility: 13 mi

Pressure: 30.11 "Hg

Humidity: 79%

Dew point: 62 °F

Location of LódzLocation

Historic Weather in Lódz — Graph

°F

Lódz temperature yesterday

Maximum temperature yesterday: 82 °F (at 12:00 PM)
Minimum temperature yesterday: 67 °F (at 5:00 AM)
Average temperature yesterday: 73 °F

Past Weeks' High & Low Weather Summary

 TemperatureHumidityPressure
High91 °F (Aug 15, 4:00 PM)96% (Aug 26, 7:00 AM)30.35 "Hg (Aug 26, 7:00 AM)
Low50 °F (Aug 21, 4:00 AM)27% (Aug 18, 6:00 PM)29.53 "Hg (Aug 19, 8:00 PM)
Average69 °F54%30.03 "Hg
* Reported Aug 13 9:00 PM — Aug 28 9:00 PM, Lódz, Weather by CustomWeather, © 2015

Note: Actual official high and low records may vary slightly from our data, if they occured in-between our weather recording intervals... More about our weather records

Advertising

Lódz weather history for previous 24 hours

 ConditionsComfort  
Time TempWeatherWind HumidityBarometerVisibility
9:00 PM
Fri, Aug 28
69 °FOvercast.3 mph79%30.11 "Hg12 mi
8:00 PM71 °FOvercast.2 mph70%30.07 "Hg12 mi
7:00 PM73 °FOvercast.3 mph65%30.06 "Hg12 mi
6:00 PM76 °FOvercast.6 mph59%30.05 "Hg12 mi
5:00 PM76 °FOvercast.5 mph58%30.04 "Hg12 mi
4:00 PM76 °FOvercast.5 mph57%30.03 "Hg12 mi
3:00 PM77 °FOvercast.6 mph54%30.02 "Hg12 mi
2:00 PM77 °FOvercast.5 mph53%30.01 "Hg12 mi
1:00 PM78 °FOvercast.7 mph53%29.98 "Hg11 mi
12:00 PM82 °FOvercast.6 mph46%29.95 "Hg12 mi
11:00 AM79 °FOvercast.5 mph51%29.94 "Hg12 mi
10:00 AM77 °FOvercast.6 mph59%29.93 "Hg12 mi
9:00 AM74 °FOvercast.5 mph67%29.93 "Hg11 mi
8:00 AM71 °FPartly sunny.5 mph75%29.92 "Hg8 mi
7:00 AM68 °FPartly sunny.2 mph80%29.91 "Hg6 mi
5:00 AM67 °FPassing clouds.2 mph80%29.90 "Hg6 mi
4:00 AM69 °FPassing clouds.3 mph75%29.90 "Hg7 mi
3:00 AM69 °FPassing clouds.2 mph72%29.90 "Hg9 mi
2:00 AM70 °FPassing clouds.2 mph68%29.91 "Hg12 mi
1:00 AM70 °FPassing clouds.2 mph65%29.92 "Hg12 mi
Weather by CustomWeather, © 2015

See weather overviewHow to use our weather pages